Regional Weather Roundup
Issued by NWS State College, PA

Home | Current Version | Previous Version | Text Only | Print | Product List | Glossary Off
Versions: 1 2 3 4 5 6 7 8 9 10 11 12 13 14 15 16 17 18 19 20 21 22 23 24 25 26 27 28 29 30 31 32 33 34 35 36 37 38 39 40 41 42 43 44 45 46 47 48 49 50

000
ASUS41 KCTP 190003
RWRCTP

REGIONAL WEATHER ROUNDUP
NATIONAL WEATHER SERVICE STATE COLLEGE PA
700 PM EST SUN FEB 18 2018

Note: "fair" indicates few or no clouds below 12,000 feet with no
significant weather and/or obstructions to visibility.

* = STATION THAT DOES NOT REPORT PRECIPITATION /E.G. RAIN...SNOW...ETC/
    THUNDER OR FOG.

PAZ002>004-007>009-013>016-020>023-029>032-190100-
WESTERN PENNSYLVANIA

CITY           SKY/WX    TMP DP  RH WIND       PRES   REMARKS
ERIE           FAIR      32  22  66 E3        30.33F
MEADVILLE      FAIR      34  26  72 VRB3      30.31F
FRANKLIN*      FAIR      32  25  75 SE5       30.33F
NEW CASTLE     FAIR      35  27  72 CALM      30.35R
BEAVER COUNTY  NOT AVBL
BUTLER*        FAIR      32  26  78 E5        30.34F
PITTSBURGH INT MOCLDY    35  26  69 E5        30.31F
PITTSBURGH     FAIR      34  24  67 E7        30.31F
INDIANA*       CLEAR     30  30 100 SE5       30.39S
LATROBE        CLEAR     34  28  80 VRB5      30.35F
WASHINGTON CO* FAIR      35  27  72 CALM      30.35S
$$

PAZ004>006-010>012-017>019-024>028-033>037-041-042-045-046-049>053-190100-
CENTRAL PENNSYLVANIA

CITY           SKY/WX    TMP DP  RH WIND       PRES   REMARKS
BRADFORD       FAIR      31  22  69 SW3       30.32S
DUBOIS         FAIR      30  22  72 SE3       30.33S
CLEARFIELD     FAIR      32  23  69 CALM      30.37R
JOHNSTOWN      FAIR      30  23  75 E3        30.31S
ALTOONA        FAIR      31  22  69 CALM      30.37R
STATE COLLEGE  CLEAR     34  25  69 CALM      30.39R
WILLIAMSPORT   FAIR      35  27  72 CALM      30.42R
SELINSGROVE    FAIR      33  27  78 CALM      30.44R
FT INDIANTOWN  FAIR      34  32  92 CALM      30.43R
CAPITAL CITY   FAIR      37  28  70 CALM      30.44R
HARRISBURG     FAIR      35  29  78 CALM      30.44R
YORK           FAIR      33  29  85 CALM      30.44R
$$

PAZ038>040-043-044-047-048-054-055-060>062-067>071-190100-
EASTERN PENNSYLVANIA

CITY           SKY/WX    TMP DP  RH WIND       PRES   REMARKS
SCRANTON       FAIR      33  24  69 SE3       30.40R
MOUNT POCONO   NOT AVBL
ALLENTOWN      FAIR      35  24  64 SW6       30.44R
QUAKERTOWN*    CLEAR     32  25  74 CALM      30.44R
READING        FAIR      39  27  62 CALM      30.44R
LANCASTER      FAIR      38  28  67 CALM      30.44R
COATESVILLE    FAIR      36 N/A N/A E3        30.46R
POTTSTOWN      FAIR      32  25  75 CALM      30.47R
BLUE BELL      FAIR      32  30  93 CALM      30.47R
DOYLESTOWN     FAIR      36  25  64 CALM      30.44R
WILLOW GROVE   NOT AVBL
NORTH PHILA    FAIR      41  26  55 NW3       30.47R
PHILADELPHIA   FAIR      43  24  47 W8        30.48R
$$




USA.gov is the U.S. government's official web portal to all federal, state and local government web resources and services.